Regional Weather Roundup
Issued by NWS Midland/Odessa, TX

Skip options and go directly to product.
Home | Oldest Version | Previous Version | Current Version | All | Text Only | Save Text | Print | Product List | Glossary Off

Skip product version selection by date and time.   

725
ASUS44 KMAF 251610
RWRMAF
MIDLAND AREA WEATHER ROUNDUP
NATIONAL WEATHER SERVICE MIDLAND TX
1100 AM CDT SAT OCT 25 2014

...IN SOUTHWEST TEXAS AND SOUTHEAST NEW MEXICO...

CITY           SKY/WX    TMP DP  RH WIND       PRES   REMARKS
ALPINE         SUNNY     75  50  42 SW7       30.35S
ANDREWS        FAIR      73  60  61 SW9       30.22S
ARTESIA        NOT AVBL
BIG SPRING     SUNNY     74  63  67 S9        30.23S
CARLSBAD       SUNNY     66  57  72 CALM      30.21S
DRYDEN           N/A     71  63  75 E3        30.20R
FORT STOCKTON  SUNNY     77  55  46 SW10      30.21S
GUAD PASS      SUNNY     63  47  55 SW9       30.35R
HOBBS          SUNNY     68  59  73 S7        30.24S
MARFA          SUNNY     66  54  63 S3        30.35S
MIDLAND AIRPK  SUNNY     75  58  54 S9        30.22S
MIDLAND INTL   SUNNY     75  57  53 S12       30.21R
ODESSA         SUNNY     74  57  55 SW13      30.22S
PECOS          SUNNY     66  58  77 CALM      30.20S
PRESIDIO       FAIR      73  55  52 CALM      30.24S
SEMINOLE       SUNNY     69  60  71 SW5       30.23F
SNYDER         SUNNY     69  61  76 SW7       30.22R
WINK           SUNNY     72  57  59 S7        30.19S
$$
...OTHER STATIONS IN TEXAS...

CITY           SKY/WX    TMP DP  RH WIND       PRES   REMARKS
ABILENE        SUNNY     79  59  50 SW15      30.18S
AMARILLO       SUNNY     73  51  46 SW15G24   30.20R
AUSTIN         SUNNY     79  58  48 SW9       30.18F
BROWNSVILLE    SUNNY     80  67  64 N3        30.17S
CORPUS CHRISTI SUNNY     77  64  64 N3        30.18S
DALLAS FTW     SUNNY     76  60  57 S9        30.14F
DEL RIO        SUNNY     74  63  68 E6        30.18R
EL PASO        SUNNY     67  49  52 CALM      30.26R
HOUSTON INT    SUNNY     74  57  55 VRB3      30.19S
LUBBOCK        SUNNY     72  58  61 SW12      30.21S
SAN ANGELO     SUNNY     77  58  51 SW16      30.20S
SAN ANTONIO    SUNNY     78  56  46 S8        30.20S
WACO           SUNNY     77  60  55 S10       30.18S
WICHITA FALLS  NOT AVBL
$$
...OTHER LOCATIONS IN NEW MEXICO...

CITY           SKY/WX    TMP DP  RH WIND       PRES   REMARKS
ALAMAGORDO     NOT AVBL
ALBUQUERQUE    SUNNY     58  30  34 NW3       30.34R
CANNON AFB     SUNNY     70  49  47 SW5       30.24S
CLOVIS         SUNNY     70  52  52 SW8       30.26S
HOLLOMAN AFB   MOSUNNY   64  48  56 E7        30.26S
ROSWELL        SUNNY     63  53  70 CALM      30.22S
RUIDOSO        SUNNY     64  39  39 CALM      30.41S
SANTA FE       SUNNY     56  23  27 N15       30.36S
TRUTH OR CONSE SUNNY     64  46  52 N3        30.30R
TUCUMCARI      SUNNY     68  36  30 W8        30.19F
$$

USA.gov is the U.S. government's official web portal to all federal, state and local government web resources and services.